FW7336 Weather Reports


time (UTC)temp
F
wind
direction
speed
knots
gust
knots
rain 1hr
in
rain 24hr
in
rain mn
in
humidity
%
barometer
mb
20260502130105 64 313 2.6 8.7 0.00 0.00 0.00 58 1015.9
20260502123102 63 220 0.0 7.0 0.00 0.00 0.00 64 1016.2
20260502121558 62 198 5.2 7.8 0.00 0.00 0.00 66 1016.4
20260502114555 60 273 3.5 7.8 0.00 0.00 0.00 68 1016.8
20260502113100 61 243 2.6 17.4 0.00 0.00 0.00 69 1017.3
20260502111558 61 247 4.3 8.7 0.00 0.00 0.00 69 1017.4
20260502110105 61 222 4.3 8.7 0.00 0.00 0.00 70 1017.3
20260502104603 59 267 5.2 14.8 0.00 0.00 0.00 71 1017.4
20260502103102 59 216 4.3 10.4 0.00 0.00 0.00 70 1017.4
20260502101607 59 214 2.6 8.7 0.00 0.00 0.00 74 1017.5
20260502100109 58 200 5.2 10.4 0.00 0.00 0.00 73 1017.6
20260502070059 51 252 2.6 6.1 0.00 0.00 0.00 89 1018.2
20260502064557 51 283 3.5 6.1 0.00 0.00 0.00 90 1018.2
20260502063058 50 260 3.5 6.1 0.00 0.00 0.00 92 1018.2
20260502061554 50 259 1.7 6.1 0.00 0.00 0.00 92 1018.3
20260502060101 50 275 1.7 6.1 0.00 0.00 0.00 92 1018.2
20260502054556 50 257 2.6 7.8 0.00 0.00 0.00 92 1018.2
20260502053057 50 261 3.5 6.1 0.00 0.00 0.00 92 1018.1
20260502051553 50 240 0.9 3.5 0.00 0.00 0.00 92 1018.0
20260502050054 50 264 3.5 6.1 0.00 0.00 0.00 92 1018.0
20260502044555 50 250 0.9 3.5 0.00 0.00 0.00 92 1018.0
20260502043106 51 271 2.6 5.2 0.00 0.00 0.00 93 1017.9
20260502041554 51 212 2.6 5.2 0.00 0.00 0.00 93 1017.9
20260502040057 51 253 1.7 3.5 0.00 0.00 0.00 92 1018.0
20260502034553 52 251 1.7 3.5 0.00 0.00 0.00 92 1018.1
20260502033055 52 264 0.0 4.3 0.00 0.00 0.00 92 1018.0
20260502031559 53 266 1.7 4.3 0.00 0.00 0.00 91 1018.3
20260502030053 53 247 3.5 6.1 0.00 0.00 0.00 91 1018.1
20260502024554 53 249 1.7 6.1 0.00 0.00 0.00 90 1018.2
20260502023053 54 283 2.6 7.0 0.00 0.00 0.00 90 1018.2
20260502021554 55 241 3.5 5.2 0.00 0.00 0.00 89 1018.4
20260502020054 55 263 3.5 7.0 0.00 0.00 0.00 88 1018.5
20260502014559 55 252 5.2 7.8 0.00 0.00 0.00 88 1018.6
20260502013057 56 271 4.3 7.0 0.00 0.00 0.00 88 1018.7
20260502011553 56 252 2.6 7.8 0.00 0.00 0.00 88 1018.8
20260502010058 56 275 2.6 6.1 0.00 0.00 0.00 88 1018.9
20260502004600 56 226 1.7 5.2 0.00 0.00 0.00 88 1019.0
20260502003053 56 269 2.6 5.2 0.00 0.00 0.00 88 1019.0
20260502001555 56 276 1.7 5.2 0.00 0.00 0.00 88 1019.1
20260502000106 56 271 4.3 7.0 0.00 0.00 0.00 88 1019.1
20260501234554 55 268 2.6 5.2 0.00 0.00 0.00 88 1019.2
20260501233102 55 270 1.7 4.3 0.00 0.00 0.00 88 1019.3
20260501231558 55 259 3.5 5.2 0.00 0.00 0.00 88 1019.2
20260501230109 56 223 2.6 6.1 0.00 0.00 0.00 88 1019.3
20260501224601 56 262 2.6 5.2 0.00 0.00 0.00 88 1019.3
20260501223103 56 269 2.6 5.2 0.00 0.00 0.00 87 1019.4
20260501221602 56 248 2.6 5.2 0.00 0.00 0.00 86 1019.2
20260501214609 58 0 0.9 3.5 0.00 0.00 0.00 83 1019.1
20260501213105 58 264 2.6 5.2 0.00 0.00 0.00 82 1019.1
20260501211556 59 270 1.7 7.8 0.00 0.00 0.00 80 1019.1
20260501210054 60 266 3.5 6.1 0.00 0.00 0.00 79 1018.9
20260501204601 60 276 1.7 5.2 0.00 0.00 0.00 77 1019.0
20260501203056 61 271 1.7 6.1 0.00 0.00 0.00 76 1018.9
20260501201611 61 245 4.3 10.4 0.00 0.00 0.00 73 1018.8
20260501200053 62 267 7.0 11.3 0.00 0.00 0.00 71 1018.7
20260501194554 62 259 7.0 10.4 0.00 0.00 0.00 69 1018.7
20260501193101 63 276 7.0 10.4 0.00 0.00 0.00 68 1018.7
20260501191557 63 241 9.6 16.5 0.00 0.00 0.00 68 1018.5
20260501190055 64 232 7.0 13.9 0.00 0.00 0.00 67 1018.4
20260501184556 67 269 6.1 12.2 0.00 0.00 0.00 64 1018.3
20260501183058 69 275 7.0 13.0 0.00 0.00 0.00 63 1017.9
20260501181554 73 293 12.2 14.8 0.00 0.00 0.00 57 1017.7
20260501180058 74 222 2.6 7.8 0.00 0.00 0.00 51 1017.4
20260501174558 74 214 2.6 7.8 0.00 0.00 0.00 49 1017.4
20260501173056 74 165 4.3 9.6 0.00 0.00 0.00 48 1017.4
20260501171556 74 199 4.3 12.2 0.00 0.00 0.00 48 1017.5
20260501170057 74 169 5.2 9.6 0.00 0.00 0.00 48 1017.6
20260501164600 74 179 6.1 8.7 0.00 0.00 0.00 47 1017.7
20260501163058 74 208 7.0 9.6 0.00 0.00 0.00 47 1017.7
20260501161600 75 221 5.2 9.6 0.00 0.00 0.00 46 1017.8
20260501154600 74 119 4.3 11.3 0.00 0.00 0.00 47 1018.0
20260501153108 74 138 6.1 9.6 0.00 0.00 0.00 47 1018.3
20260501151601 74 191 7.0 13.9 0.00 0.00 0.00 46 1018.5
20260501150100 74 7.0 11.3 0.00 0.00 0.00 47 1018.5